Theta_e
334 333 333 333 333 336 334 335 335 335 336 337 337 337 337 339 339 338 338 339 338 336 337 336 334 335 337 337 336 335 333 332 330 328 326 327 325 325 327 325 325 322 322 322 321 317 314 311 312 317 319 319 318 316 315 313 313 314 314 315 316 317 317
335 335 334 334 333 335 333 334 335 335 335 336 337 337 337 338 340 339 339 339 338 336 337 337 336 335 336 336 335 334 332 331 331 330 328 328 326 325 324 323 322 320 321 320 321 318 312 311 309 311 310 315 315 315 316 314 314 314 315 314 315 318 317
335 334 335 334 333 333 332 332 334 334 334 335 336 337 337 338 339 340 339 339 339 338 337 335 336 336 336 336 336 335 334 332 332 331 329 329 329 327 326 325 324 318 318 319 318 317 315 314 310 310 310 310 308 312 316 314 314 315 316 314 316 316 316
336 334 333 333 333 331 332 332 333 334 334 334 335 336 337 338 339 340 340 339 340 339 338 336 335 337 336 336 336 336 334 333 332 331 329 330 331 329 326 325 326 323 320 318 317 317 315 312 311 311 311 312 310 310 314 316 315 314 314 313 313 314 315
337 336 334 333 333 332 332 332 332 333 334 334 334 335 336 337 339 339 340 339 339 338 338 337 336 336 337 336 335 335 334 333 333 332 331 329 329 329 328 327 327 326 324 322 322 319 317 316 314 311 310 312 314 315 317 316 318 315 313 312 313 313 314
338 337 335 334 334 333 332 332 331 331 333 333 334 334 335 337 338 338 339 338 338 338 338 336 336 336 335 335 335 335 333 332 332 332 330 330 329 329 329 328 327 326 326 323 324 322 321 318 315 310 312 313 310 312 315 315 313 314 313 312 313 313 313
338 338 337 336 335 334 334 333 333 332 332 333 334 335 336 337 338 339 339 339 339 338 338 337 337 337 336 336 335 334 333 332 332 331 331 330 329 329 329 328 327 327 327 324 324 323 321 317 314 312 310 311 313 311 313 312 314 311 313 313 314 313 313
339 338 338 337 336 335 335 334 334 334 333 334 335 336 336 337 338 338 339 339 338 338 337 337 338 338 337 336 336 335 334 333 331 331 330 329 328 327 326 327 327 327 327 326 324 324 324 320 317 314 311 308 309 310 309 312 311 311 311 312 315 312 311
340 339 338 336 336 337 336 335 335 335 335 334 335 335 336 338 338 338 338 338 338 338 337 337 337 336 335 335 334 334 334 334 333 331 330 329 328 327 327 326 324 325 326 326 325 324 324 322 319 316 314 311 307 305 308 308 308 309 312 310 312 312 310
340 338 338 337 336 337 337 336 336 336 336 336 336 336 336 338 338 338 338 338 338 337 336 336 336 336 335 335 334 333 333 332 332 332 330 330 329 327 326 325 325 324 323 323 324 324 323 322 320 318 316 314 312 308 305 305 306 306 309 311 308 308 309
341 340 339 339 338 337 337 337 337 337 337 337 338 338 338 338 338 341 338 338 337 336 336 335 335 334 334 333 333 333 333 331 331 328 328 328 328 327 325 324 324 323 321 323 324 323 324 323 320 318 317 317 315 311 308 305 305 307 307 308 309 305 306
342 341 340 340 339 338 337 338 338 338 338 338 338 337 338 338 338 339 338 338 337 335 334 334 333 332 331 330 329 329 327 328 328 327 327 327 327 326 325 324 324 324 324 324 323 324 324 323 321 319 318 318 316 313 310 308 303 304 308 306 304 306 306
342 342 341 340 339 339 338 338 338 338 338 338 338 339 339 338 338 338 338 338 336 334 333 332 332 331 330 329 328 327 327 327 327 327 327 327 329 328 327 326 325 325 325 324 324 324 323 323 322 319 318 317 313 312 311 308 306 305 307 307 304 305 306
342 342 341 341 340 340 339 338 338 339 339 338 339 339 339 339 339 339 339 337 336 333 332 331 331 331 330 328 328 328 327 328 327 325 326 326 327 327 326 325 324 323 321 323 323 323 322 322 321 319 317 316 312 310 309 307 305 303 304 305 304 304 305
342 342 341 341 341 341 340 340 339 339 338 339 339 340 340 340 339 339 339 337 337 334 333 331 330 330 329 328 327 327 326 326 325 323 323 326 325 325 323 322 322 320 324 324 323 323 322 321 320 318 317 316 313 310 310 308 304 303 303 301 302 303 303
342 342 341 341 341 341 341 340 340 339 339 339 340 340 340 340 340 339 339 338 337 335 333 331 331 330 329 328 327 326 325 325 324 322 321 324 325 323 322 322 322 324 325 324 324 323 322 321 321 319 317 316 314 311 311 310 305 303 303 301 301 302 302
341 342 341 341 341 342 342 341 340 340 340 340 339 340 341 340 340 339 338 337 336 335 333 331 330 330 329 328 327 326 324 324 323 322 321 321 323 322 322 322 323 324 324 322 322 322 322 322 320 320 317 315 314 313 312 312 308 304 303 301 300 302 302
340 341 341 342 342 342 342 341 341 340 340 339 340 340 340 340 340 339 338 337 335 334 333 332 330 329 329 328 327 326 324 323 322 321 321 319 325 323 321 321 322 323 322 320 319 320 321 320 320 318 317 316 314 314 314 315 310 306 304 302 301 302 302
340 340 341 342 342 342 342 341 341 341 341 340 340 340 340 340 340 339 338 337 336 334 333 332 331 329 328 328 327 326 324 323 322 322 319 318 321 322 321 320 320 322 321 320 318 318 320 319 319 317 316 317 316 314 313 313 312 306 305 303 301 301 300
340 340 341 342 342 342 342 341 341 341 341 341 340 339 339 339 339 339 338 337 335 333 332 332 331 329 328 328 327 325 323 322 322 322 320 318 319 321 321 320 320 321 320 319 318 318 318 319 319 317 317 317 317 314 313 313 311 306 305 303 301 302 302
340 341 341 342 343 343 342 341 341 341 341 340 340 340 339 339 338 338 337 336 335 333 332 331 330 329 328 327 326 325 323 322 321 320 320 319 319 319 320 320 320 321 321 320 319 318 318 318 318 317 317 317 316 314 313 312 311 307 304 302 301 300 301
341 341 341 342 342 342 342 341 341 341 341 340 340 340 340 339 338 336 336 335 334 332 332 331 330 329 327 326 326 324 323 322 320 319 319 319 318 317 318 320 320 320 321 323 320 319 320 321 318 316 316 315 315 314 313 311 310 308 304 303 301 302 301
341 341 341 341 341 342 342 341 340 340 341 341 340 339 339 338 337 336 335 334 333 332 331 331 327 320 322 326 325 325 323 322 319 318 318 317 315 315 317 319 320 325 323 322 319 313 311 313 316 318 317 316 316 315 313 311 309 307 305 302 301 300 300
340 340 341 341 341 341 341 341 340 340 340 340 340 338 338 337 336 336 335 333 332 331 331 330 315 309 310 315 324 324 323 320 317 316 315 314 312 312 312 315 317 323 322 322 316 309 308 308 308 309 311 314 317 317 314 311 309 307 306 304 302 301 301
339 340 341 341 341 341 342 341 340 340 340 340 339 338 337 336 336 335 334 333 332 331 329 320 307 307 307 308 316 323 322 319 316 314 314 313 312 312 312 312 312 314 311 308 305 304 305 304 304 305 306 306 306 307 310 314 311 307 306 304 302 301 301
339 339 340 341 341 341 341 341 340 339 339 340 339 337 337 336 335 335 333 332 331 330 328 312 305 305 306 305 308 317 320 319 315 314 313 313 312 311 310 310 310 309 310 315 311 303 302 300 300 299 300 301 302 303 302 302 305 312 309 307 305 302 302
337 338 339 340 340 340 340 340 340 340 340 339 338 337 336 336 335 334 332 331 330 329 328 312 305 304 304 303 304 311 319 317 315 314 313 312 312 311 310 310 309 308 308 308 303 303 302 301 303 304 303 302 303 305 303 301 301 302 307 309 307 305 305
337 337 338 339 339 339 339 340 340 339 339 338 338 337 336 335 335 333 332 331 329 327 328 307 304 303 303 302 302 309 318 317 315 314 313 313 312 312 310 310 309 309 308 305 304 303 303 302 303 304 301 300 298 298 298 299 302 306 309 309 308 308 307
337 336 337 338 338 338 339 339 339 338 337 338 338 337 336 335 333 332 332 331 328 325 326 304 303 302 302 301 301 318 317 316 315 314 313 312 311 312 311 310 309 308 309 306 306 300 303 304 304 302 300 297 297 296 296 300 294 294 301 306 308 308 307
336 336 336 337 337 338 338 338 338 338 336 336 336 335 335 334 333 333 331 329 328 326 322 306 302 302 301 300 305 319 316 315 314 313 313 312 311 311 312 310 309 308 308 307 303 296 298 305 304 302 300 297 297 297 298 297 296 293 293 296 298 301 300
336 335 336 336 337 338 338 339 339 336 336 335 335 335 335 334 333 332 330 329 328 325 320 308 300 301 301 300 311 319 316 315 313 313 312 311 311 311 312 315 313 308 307 307 299 295 296 304 304 302 299 298 297 296 296 297 298 297 295 294 294 295 298
336 336 335 336 337 337 337 338 338 336 336 336 335 335 332 333 332 331 330 328 322 323 318 309 299 300 300 301 312 319 317 315 313 312 311 310 309 310 311 315 313 309 309 306 297 296 296 304 304 301 300 299 298 296 296 295 297 296 296 297 297 299 298
335 336 335 336 337 337 338 337 337 335 335 335 334 333 331 332 331 330 327 325 321 322 317 312 303 299 300 301 307 319 317 315 313 311 311 311 310 306 310 310 309 300 300 299 296 295 295 299 304 302 300 300 299 297 296 295 296 296 297 297 296 296 296
335 336 336 336 337 336 337 337 336 335 334 334 333 332 330 331 331 328 325 324 321 320 318 314 306 298 300 302 304 311 317 316 315 313 311 309 310 308 308 309 308 301 297 297 296 295 295 296 300 303 301 301 301 300 296 296 298 303 296 296 296 295 295
335 336 336 336 336 336 337 337 336 335 334 333 332 332 331 329 330 327 324 323 321 320 317 311 310 299 300 302 303 306 316 316 314 313 311 310 308 308 308 308 307 302 296 296 295 295 295 296 297 304 301 297 295 293 298 298 298 297 297 297 295 295 294
333 336 335 335 336 335 336 336 335 334 333 332 332 331 331 330 328 324 322 321 320 319 317 312 305 305 299 300 301 303 306 309 303 313 312 310 308 308 306 307 307 302 295 295 294 294 295 295 298 302 296 294 293 293 296 297 296 296 295 294 296 295 293
333 334 334 334 335 335 334 335 334 333 333 332 332 331 330 329 327 323 321 319 318 317 315 314 305 303 303 298 300 301 302 303 302 311 313 312 309 308 306 305 304 297 295 294 294 294 294 296 299 294 293 294 293 294 298 296 294 295 294 293 294 293 294
Wind_Speed
8 8 7 6 5 6 7 8 7 7 6 6 8 7 7 7 7 7 7 6 6 6 6 6 7 6 7 7 9 9 7 8 9 9 8 8 11 8 8 6 1 2 6 3 6 8 5 7 6 2 1 4 5 6 8 9 9 9 8 7 7 6 6
6 7 6 6 7 6 7 7 8 7 7 6 7 8 7 7 7 7 7 6 6 6 6 6 6 7 8 9 8 8 8 7 8 7 8 10 9 8 6 6 2 2 3 1 4 4 4 5 2 8 5 0 1 4 5 7 6 7 8 8 7 8 6
7 6 6 7 6 6 7 8 8 8 7 7 6 6 7 8 8 7 7 8 7 7 6 7 5 6 7 8 11 10 9 9 7 7 9 8 9 7 8 7 7 3 2 1 4 7 2 3 7 10 8 9 9 6 3 5 5 5 6 6 6 8 7
9 8 7 6 6 6 7 7 8 8 7 8 7 7 7 7 8 7 7 7 7 7 7 7 7 7 7 8 8 9 10 11 8 8 7 6 8 8 7 7 9 10 10 9 8 8 6 4 3 6 7 10 9 7 5 5 5 6 8 6 6 7 7
10 9 10 9 8 8 7 8 7 7 8 8 8 8 7 7 7 7 7 8 8 7 8 7 7 7 7 7 7 7 8 9 8 9 8 8 8 7 8 7 8 7 5 6 6 9 10 8 7 6 9 5 3 3 3 4 3 6 5 7 6 7 7
10 10 9 9 8 8 7 7 7 8 8 8 9 9 9 9 7 8 8 8 8 8 7 7 7 7 7 7 7 8 8 9 9 9 9 10 10 9 10 8 7 5 8 5 6 8 8 3 6 4 2 6 5 4 2 6 4 5 6 7 6 6 7
10 10 9 10 9 8 7 8 8 8 8 10 9 10 9 8 7 8 8 8 8 8 7 8 8 7 7 7 7 8 8 9 8 10 10 10 9 9 6 6 7 8 8 5 6 6 8 6 6 8 7 2 3 4 1 4 4 5 4 4 4 5 6
10 9 9 9 9 9 8 8 8 8 8 8 9 7 6 8 8 7 8 8 8 8 7 7 7 7 7 7 7 8 8 7 8 8 7 7 8 8 7 7 8 7 7 6 7 9 9 10 10 9 11 9 3 3 4 3 3 8 5 4 5 5 6
10 9 7 7 9 10 9 10 9 9 8 6 6 5 7 7 8 8 8 9 8 8 8 8 7 7 7 7 6 7 8 6 8 9 8 8 8 8 8 6 5 7 6 6 7 8 9 9 7 9 11 11 12 7 3 4 4 6 5 5 4 6 6
12 12 13 13 12 9 9 9 9 9 7 7 6 6 7 7 7 7 8 8 8 8 7 8 8 7 7 7 8 7 8 6 7 8 7 7 7 6 6 7 7 5 5 3 2 1 1 2 3 6 9 13 12 11 9 8 8 7 7 7 6 5 7
14 15 13 11 10 9 9 8 8 8 9 8 7 6 7 8 8 8 8 8 8 7 8 7 7 8 7 7 7 7 7 6 6 4 5 5 6 5 4 4 4 4 3 4 4 4 5 6 7 9 8 7 8 11 9 10 8 7 5 4 5 4 4
13 12 11 10 9 10 11 10 10 9 7 8 8 7 8 8 9 8 8 8 7 8 7 8 7 7 7 7 5 6 4 5 5 5 5 5 4 5 5 5 5 5 5 5 5 5 5 6 6 7 7 6 4 3 9 7 6 5 4 8 4 3 7
14 13 12 12 12 13 13 12 11 9 10 8 8 9 9 9 9 9 8 8 8 8 8 7 8 8 7 6 6 6 5 5 5 6 5 4 4 5 5 7 7 6 5 5 4 5 6 6 6 7 8 8 6 5 6 7 7 7 6 6 5 4 9
14 13 12 12 12 12 10 10 11 11 8 9 9 9 10 11 10 10 9 8 8 8 8 8 7 7 7 7 6 6 6 6 7 6 4 5 4 4 5 5 5 3 3 4 4 4 5 6 6 6 7 7 5 5 6 5 6 3 1 1 5 5 6
13 12 14 14 13 12 11 11 11 9 11 10 10 11 11 10 10 10 10 9 9 9 9 9 8 8 8 7 7 6 7 7 7 5 5 5 5 4 4 5 4 3 4 4 5 5 5 6 7 7 7 7 6 6 5 5 3 4 5 2 3 3 6
11 11 12 13 14 13 12 12 10 11 11 10 10 11 11 11 11 10 10 9 9 9 10 9 9 9 8 9 9 7 7 7 7 6 6 6 7 5 5 5 5 4 4 5 5 5 5 6 6 7 7 6 6 6 6 4 4 3 8 4 5 7 7
10 10 12 11 13 13 12 11 11 11 11 10 11 10 10 11 10 11 10 9 10 9 9 9 9 9 10 9 9 9 7 7 6 6 7 7 7 6 6 6 6 5 5 5 5 5 5 6 6 6 6 6 6 6 6 3 4 5 4 7 4 8 7
11 11 12 11 12 12 11 11 10 12 11 11 11 10 10 10 11 11 11 11 10 10 10 10 10 9 9 9 10 9 8 7 6 6 6 6 7 7 7 7 7 6 5 5 4 5 6 7 6 6 7 7 7 5 5 5 4 4 6 7 6 3 5
12 12 12 10 10 10 11 11 11 11 12 12 11 10 11 10 11 12 11 10 10 10 10 10 11 11 10 9 9 8 8 7 7 7 6 5 7 7 7 7 6 7 7 7 6 5 6 8 7 7 7 6 6 5 5 4 4 4 7 7 8 5 4
12 12 11 11 9 9 9 10 11 12 11 12 12 11 11 12 10 11 10 9 10 10 10 10 10 10 10 10 10 9 8 7 7 6 5 5 6 7 7 7 7 7 8 7 7 7 7 7 7 8 8 7 6 5 6 6 5 5 6 6 4 7 9
12 12 11 11 11 10 9 9 10 11 10 11 12 13 13 12 10 9 10 9 9 9 10 9 9 9 9 10 9 8 8 8 7 6 5 5 5 7 8 7 8 8 8 8 7 7 7 7 6 7 7 6 6 6 6 6 5 6 6 6 7 7 6
10 10 11 11 12 11 10 10 10 10 11 11 11 12 11 11 11 10 9 10 10 9 10 10 9 9 9 9 9 9 8 8 7 6 5 6 5 6 7 7 7 8 8 10 12 10 9 7 7 7 6 6 6 7 5 5 6 6 6 6 6 4 7
11 11 11 12 12 11 11 10 10 10 12 12 11 11 11 11 11 12 11 10 10 10 9 8 11 16 13 10 9 8 7 7 6 6 6 6 6 5 7 7 7 12 13 13 12 13 12 11 10 8 7 7 7 6 6 6 6 7 7 8 8 8 8
11 12 12 12 11 11 11 10 10 11 11 11 12 11 12 12 11 11 12 12 11 10 9 9 16 17 16 16 11 8 8 7 5 6 6 7 6 6 4 6 6 9 9 8 7 12 13 13 12 12 11 11 10 9 7 8 8 7 8 9 8 9 11
12 12 12 12 12 11 11 10 10 11 11 11 11 11 12 13 12 11 10 11 12 11 10 12 18 17 17 16 13 9 7 7 6 7 7 8 7 6 6 6 4 4 5 6 6 5 5 8 11 13 13 13 14 14 14 12 10 8 8 8 8 11 10
12 12 12 12 11 11 11 11 11 11 13 12 11 12 13 12 12 12 12 12 12 11 9 14 18 18 17 16 16 12 7 7 8 8 7 8 7 7 6 7 5 4 4 9 7 6 6 5 4 6 7 5 4 10 14 16 15 14 12 11 12 11 12
12 12 11 11 11 11 11 12 12 11 10 10 11 12 12 13 12 12 12 12 11 10 10 13 19 18 17 17 16 13 7 9 9 9 9 8 7 7 7 8 7 6 4 4 5 6 6 6 6 5 4 3 3 3 2 7 12 11 10 11 12 13 10
12 11 11 11 11 12 12 12 12 11 10 12 13 14 14 13 12 12 12 11 10 10 9 16 18 19 17 17 17 13 8 8 8 8 8 8 9 8 8 8 8 8 7 6 6 7 7 7 6 5 4 3 3 2 2 2 1 4 7 6 8 10 10
12 11 11 12 12 13 13 13 13 11 10 10 10 10 9 10 11 12 12 11 11 11 10 18 19 19 18 17 18 10 9 9 9 8 8 7 7 7 8 8 8 7 7 7 8 12 10 8 7 6 5 3 2 1 1 1 1 3 3 5 6 7 7
12 12 12 13 13 13 13 13 12 10 10 11 11 11 12 12 11 12 12 12 12 11 10 15 20 20 18 18 15 9 9 8 8 8 8 7 7 7 7 7 8 8 7 7 10 13 12 11 7 7 7 5 3 2 1 1 3 5 4 1 4 8 9
13 13 13 14 15 14 13 11 12 10 12 12 12 12 11 10 10 11 13 13 13 12 10 13 19 19 19 19 16 11 9 9 8 8 7 6 6 6 8 12 9 8 8 8 11 14 13 11 8 8 7 7 5 4 2 0 1 2 4 6 7 5 3
14 14 15 15 14 14 13 12 10 10 11 11 11 10 9 9 9 9 11 12 14 14 11 12 18 19 20 20 16 10 10 8 9 7 7 7 5 6 6 10 14 11 10 10 14 15 15 11 7 8 8 7 7 6 6 4 4 3 2 3 2 3 4
14 15 16 15 13 13 11 10 11 11 10 9 9 9 9 10 11 10 8 9 10 12 12 11 16 20 20 21 20 12 9 10 10 8 7 8 7 5 6 6 10 15 15 14 15 16 15 13 8 6 6 7 7 7 4 4 3 3 3 3 2 2 3
14 15 14 14 13 12 11 12 11 11 11 10 9 9 10 10 10 9 9 9 10 10 11 13 14 19 20 21 20 17 10 11 10 10 9 8 8 8 7 7 7 11 15 15 15 15 14 14 10 8 8 8 8 6 8 4 3 4 4 4 3 3 3
13 13 13 12 12 12 12 12 12 12 11 11 12 12 11 10 10 9 8 9 10 11 11 17 14 17 20 21 20 20 12 11 11 10 9 8 7 7 8 8 8 11 15 14 14 14 15 13 13 8 9 9 8 13 10 5 5 5 4 4 4 3 3
12 10 12 13 14 14 12 12 11 11 12 12 12 12 12 10 9 8 8 8 8 9 10 12 19 17 18 19 21 20 18 13 14 12 11 10 10 9 7 8 8 13 15 14 14 14 13 13 11 8 11 11 12 13 9 6 5 6 6 4 5 6 4
11 10 12 13 14 14 13 12 12 11 12 12 11 11 10 10 9 9 10 9 7 7 8 9 13 20 19 20 18 19 17 18 18 11 10 10 9 9 8 8 9 14 15 14 14 14 13 12 9 11 14 14 14 12 7 6 6 6 5 5 6 5 6
Wind_Direction
178 170 161 160 154 157 169 173 172 190 196 187 181 186 179 178 178 178 184 192 198 203 198 198 183 177 170 178 180 187 179 180 178 177 184 181 186 209 209 229 279 100 171 121 152 170 170 182 205 235 290 171 179 189 172 168 169 169 164 172 173 171 168
159 163 155 150 157 160 168 173 173 188 196 195 189 185 184 183 184 183 181 191 197 201 198 207 190 171 177 175 184 184 187 190 192 185 172 190 199 207 176 225 154 127 158 86 147 115 160 179 190 194 193 16 221 210 187 172 169 158 156 159 171 168 170
159 159 161 165 168 159 170 176 176 184 193 196 196 193 186 187 187 186 184 189 197 197 196 204 197 179 179 184 185 189 188 190 195 188 190 191 198 198 196 189 181 110 116 115 179 191 214 178 174 197 190 177 189 203 169 173 153 144 138 156 155 167 170
167 159 167 183 176 171 175 177 180 185 190 194 194 198 192 190 191 191 189 192 193 195 196 199 200 189 187 185 188 191 191 191 192 194 202 206 196 199 197 191 198 186 184 189 190 192 188 180 170 202 187 197 188 165 197 145 153 151 170 182 169 157 165
172 174 180 190 187 183 181 180 179 175 190 194 196 198 198 194 191 195 194 192 194 194 198 197 198 195 186 183 180 188 196 199 194 193 197 198 201 206 208 203 210 203 202 207 193 186 196 206 172 177 191 150 152 155 99 123 149 175 196 184 182 152 169
180 179 182 193 190 190 180 177 178 190 184 191 201 201 204 193 190 194 196 196 195 197 195 192 200 198 189 180 183 186 191 192 196 196 197 204 198 201 209 208 207 187 212 196 159 186 212 149 138 145 193 180 147 126 132 153 181 201 201 192 180 157 160
184 184 187 197 197 190 182 187 189 192 194 199 198 207 200 193 195 198 198 199 196 194 190 191 192 198 194 186 183 186 193 199 195 198 203 204 203 213 205 206 213 211 215 183 186 188 197 148 173 171 143 104 101 120 110 177 154 165 239 214 177 157 147
184 188 192 194 192 195 194 193 194 194 201 206 207 207 195 196 195 193 197 196 197 196 187 186 187 189 193 188 184 191 193 190 195 194 203 196 204 209 208 208 215 221 218 186 176 202 190 190 182 156 146 137 126 155 165 165 160 205 183 188 175 187 160
183 185 187 186 193 191 193 196 200 200 203 202 211 203 207 199 197 194 196 199 194 191 185 182 178 176 179 178 180 181 191 185 188 192 197 194 206 206 210 214 212 228 223 203 185 193 198 198 174 158 164 154 145 175 161 170 197 219 191 165 184 196 156
181 187 193 194 190 185 186 190 194 196 193 195 203 204 207 207 203 196 197 198 193 187 181 180 176 175 173 174 173 177 184 186 187 198 190 192 200 192 197 202 214 223 230 222 198 179 79 83 139 173 171 175 172 150 165 183 202 193 203 183 178 187 159
191 194 193 190 183 179 187 188 189 192 196 194 198 201 204 209 208 199 196 195 190 181 180 177 176 174 172 177 180 182 186 179 189 190 195 196 203 190 189 186 200 217 204 206 209 167 181 171 156 175 189 171 166 164 167 175 197 193 178 191 178 151 163
196 195 193 186 178 185 189 190 194 196 184 192 194 198 202 210 207 203 196 193 182 180 175 176 173 171 172 171 178 183 183 180 192 208 207 190 197 181 193 193 186 201 196 206 199 175 186 175 169 165 175 156 177 185 164 164 156 237 167 186 200 157 154
193 192 189 183 185 193 195 190 190 189 194 185 196 197 204 208 208 205 196 190 182 174 173 175 172 170 168 174 172 178 185 178 194 209 220 205 184 191 194 201 197 202 191 189 190 178 170 175 163 165 171 172 170 166 160 153 168 189 195 174 167 154 157
195 194 191 190 191 195 193 191 192 194 176 194 191 197 205 208 208 206 198 190 183 174 171 170 173 166 169 168 175 174 172 180 187 205 200 204 202 191 195 203 209 202 138 161 160 160 166 166 167 168 169 166 163 156 153 153 158 139 63 127 147 155 156
199 197 193 191 193 192 191 193 193 181 191 195 189 198 203 206 207 204 200 193 186 175 170 168 168 166 168 168 170 174 173 176 184 185 183 191 193 191 177 187 206 175 154 158 162 173 169 162 161 160 171 172 168 168 171 136 150 132 163 114 113 115 152
197 204 204 197 194 192 191 188 184 188 193 192 193 197 200 202 203 202 200 192 186 177 170 166 168 167 170 170 170 178 180 179 185 186 186 191 188 181 175 185 190 171 161 165 176 178 159 161 160 166 169 173 171 175 178 157 129 127 155 175 157 154 170
199 201 207 210 203 194 189 185 179 188 191 188 192 198 197 197 199 200 198 190 184 176 169 164 166 170 169 170 171 177 182 188 191 191 189 183 182 179 182 179 189 177 174 176 170 159 159 155 163 166 170 179 180 173 179 175 162 132 154 144 191 171 181
198 202 208 212 211 200 191 184 180 185 187 192 192 189 195 194 196 198 199 190 181 176 171 165 164 167 169 170 172 177 184 188 191 192 190 177 179 180 182 186 182 176 180 183 173 161 160 165 168 169 175 184 188 172 165 180 172 136 143 166 170 190 165
200 204 206 212 216 209 197 188 183 184 187 192 190 191 191 193 196 198 198 188 180 174 170 168 167 166 168 170 173 179 182 184 188 188 185 176 179 180 184 187 177 174 184 186 189 169 167 174 174 179 183 186 186 175 171 180 171 150 156 166 159 143 166
199 202 204 207 210 212 209 196 185 185 188 189 188 191 193 193 196 194 192 183 180 173 171 171 168 166 167 170 174 177 180 183 186 184 187 179 184 182 186 183 176 179 188 191 185 182 175 180 182 187 192 191 183 172 182 183 172 161 159 152 170 178 172
198 200 201 203 207 210 209 202 194 188 182 187 192 192 192 194 191 187 185 183 180 174 172 173 172 170 170 172 173 178 178 181 180 183 191 194 186 187 188 184 181 187 191 190 187 185 180 181 183 187 194 189 178 176 184 181 174 170 160 163 171 177 192
195 198 200 203 206 207 204 203 196 189 187 192 192 192 189 187 182 186 184 181 178 176 178 179 177 173 171 174 175 177 182 179 173 181 195 206 204 188 188 184 187 193 195 193 191 183 188 185 181 193 198 181 180 180 182 174 180 174 174 169 182 175 167
192 196 199 203 206 205 204 201 195 191 192 193 192 188 186 186 184 184 183 183 179 180 185 185 181 178 174 171 175 178 178 179 172 177 188 197 211 199 190 183 190 195 196 196 193 191 188 196 199 199 192 184 184 184 183 181 183 183 175 180 182 173 181
193 197 201 203 203 204 204 199 197 196 193 190 190 187 184 186 188 188 186 182 182 186 186 186 179 178 177 171 170 174 177 177 168 173 178 175 180 181 183 178 181 191 189 192 193 200 194 199 207 213 207 198 194 185 184 190 196 184 183 188 182 182 190
195 200 200 202 201 202 203 200 199 198 194 190 190 185 189 190 188 187 186 186 186 186 188 182 176 180 179 176 173 173 173 168 171 175 178 172 167 162 159 151 159 157 162 167 161 158 177 198 208 214 217 213 211 208 196 187 188 192 190 183 184 196 191
197 199 201 200 199 200 201 202 202 199 199 194 185 189 195 189 190 188 185 187 192 187 187 177 178 180 181 178 175 167 170 168 170 178 179 173 167 164 157 151 150 158 164 164 151 148 141 131 126 144 140 145 190 213 215 210 200 190 183 188 187 195 200
199 200 199 199 199 202 202 205 205 202 197 189 191 195 194 194 191 189 189 189 190 187 184 178 179 180 180 178 174 167 168 170 174 176 178 174 170 169 168 161 160 165 178 161 156 151 142 139 144 134 119 104 108 85 125 203 209 216 199 189 184 197 203
204 202 199 198 200 202 204 207 205 199 195 194 195 196 194 196 195 191 189 187 185 184 189 177 181 180 180 177 174 167 165 168 171 176 179 177 174 174 174 171 169 168 169 173 179 162 148 152 142 134 125 119 91 63 61 44 218 206 197 210 203 201 190
205 203 202 200 200 203 204 204 203 198 197 200 201 197 197 194 192 193 191 186 182 188 185 177 181 181 179 179 173 169 164 170 174 177 179 181 179 178 175 171 168 169 171 178 190 175 163 152 146 145 148 142 121 70 63 47 272 284 276 228 215 207 197
206 205 203 203 203 203 203 203 202 191 197 200 197 198 199 197 195 190 187 188 186 186 180 184 181 181 180 175 171 173 168 172 178 179 184 183 177 175 177 175 170 168 172 186 186 181 168 154 152 159 159 166 168 140 149 336 43 47 43 38 246 240 222
205 205 204 206 205 204 202 199 197 187 195 196 200 203 199 196 192 190 188 191 189 181 181 181 183 181 177 176 175 171 173 173 182 183 184 183 172 176 183 178 169 168 177 192 185 184 176 163 164 167 166 164 165 174 208 349 25 50 87 93 77 79 191
208 205 206 208 205 201 196 195 194 187 197 198 203 200 193 194 195 193 193 192 182 176 172 180 185 182 179 178 176 172 171 174 176 187 176 182 182 176 187 187 178 176 181 188 182 189 182 178 167 173 175 168 178 187 203 183 151 114 90 73 42 66 60
212 208 208 207 202 199 191 190 191 189 194 196 198 194 191 195 193 193 185 181 180 179 170 174 185 184 180 179 176 170 174 172 182 181 178 176 175 193 189 190 191 182 183 182 184 187 188 185 168 174 166 177 179 199 193 179 199 157 148 133 122 66 92
215 213 208 202 197 193 191 192 188 187 192 194 193 192 193 197 193 188 182 182 178 180 175 169 183 184 182 180 177 170 180 181 177 172 173 175 178 177 186 193 192 193 186 184 184 187 188 191 175 169 182 188 196 169 147 161 177 165 139 131 117 102 85
220 213 206 197 193 195 195 190 187 188 190 190 193 196 195 193 191 185 186 179 183 182 179 174 169 190 183 182 180 177 174 183 171 165 168 175 175 177 180 184 192 193 191 187 184 184 187 188 180 172 195 195 147 138 161 165 144 134 132 127 122 123 114
231 217 205 196 191 194 189 188 188 187 187 190 195 198 196 193 186 180 181 184 186 183 178 183 173 176 189 186 183 180 176 170 170 168 168 176 182 180 172 178 190 184 187 187 182 182 182 182 176 189 182 164 162 165 151 142 143 138 140 149 146 163 175
238 230 208 196 194 189 186 187 185 186 187 188 194 197 195 190 183 180 184 185 188 188 185 178 186 179 179 191 187 181 175 168 167 176 173 175 172 167 168 179 187 180 181 181 180 176 173 168 176 180 172 172 167 161 151 144 151 159 151 151 174 186 201